Weather History for Great Bend, KS

Change the Weather History Date:

Sunday, January 5, 2014

  Actual Average Record
Temperature  
Mean Temperature 12 °F -  
Max Temperature 19 °F 39 °F - (-1)
Min Temperature 3 °F 20 °F - (-1)
Degree Days  
Heating Degree Days 53    
Moisture  
Dew Point -1 °F    
Average Humidity 57    
Maximum Humidity 73    
Minimum Humidity 48    
Precipitation  
Precipitation 0.00 in - - ()
Sea Level Pressure  
Sea Level Pressure 30.33 in    
Wind  
Wind Speed 18 mph (North)    
Max Wind Speed 24 mph    
Max Gust Speed 30 mph    
Visibility 10 miles    
Events      
Averages and records for this station are not official NWS values.
T = Trace of Precipitation, MM = Missing Value Source: NWS Daily Summary

Daily Weather History Graph

Daily Weather History Graph

Search for Another Location

Airport:

Trip Planner

Search our weather history database for the weather conditions in past years. The results will help you decide how hot, cold, wet, or windy it might be!

Date:

Astronomy

Jan. 05, 2014 Rise Set
Actual Time 7:52 AM CST 5:29 PM CST
Civil Twilight 7:23 AM CST 5:58 PM CST
Nautical Twilight 6:50 AM CST 6:31 PM CST
Astronomical Twilight 6:18 AM CST 7:03 PM CST
Moon 10:39 AM CST (1/5) 10:54 PM CST (1/5)
Length of Visible Light 10h 35m
Length of Day
9h 36m
Waxing Crescent, 25% of the Moon is Illuminated
Jan 5
Waxing Crescent
Jan 7
First Quarter
Jan 15
Full
Jan 23
Last Quarter
Jan 30
New

Hourly Weather History & Observations

Time (CST) Temp. Windchill Dew Point Humidity Pressure Visibility Wind Dir Wind Speed Gust Speed Precip Events Conditions
12:15 AM 19.4 °F 3.2 °F 6.8 °F 58% 30.08 in 10.0 mi North 20.7 mph 28.8 mph N/A   Overcast
12:35 AM 19.4 °F 3.6 °F 8.6 °F 63% 30.10 in 10.0 mi North 19.6 mph - N/A   Overcast
12:55 AM 19.4 °F 3.2 °F 8.6 °F 63% 30.10 in 10.0 mi North 20.7 mph 26.5 mph N/A   Overcast
1:15 AM 19.4 °F 3.2 °F 8.6 °F 63% 30.09 in 10.0 mi North 20.7 mph 28.8 mph N/A   Overcast
1:35 AM 19.4 °F 3.6 °F 6.8 °F 58% 30.10 in 10.0 mi North 19.6 mph 27.6 mph N/A   Overcast
1:55 AM 17.6 °F 1.3 °F 3.2 °F 53% 30.11 in 10.0 mi North 19.6 mph 27.6 mph N/A   Overcast
2:15 AM 17.6 °F 0.5 °F 3.2 °F 53% 30.12 in 10.0 mi North 21.9 mph 28.8 mph N/A   Overcast
2:35 AM 17.6 °F 0.9 °F 3.2 °F 53% 30.12 in 10.0 mi North 20.7 mph 26.5 mph N/A   Overcast
2:55 AM 17.6 °F 0.1 °F 3.2 °F 53% 30.13 in 10.0 mi North 23.0 mph 26.5 mph N/A   Overcast
3:15 AM 17.6 °F 2.2 °F 3.2 °F 53% 30.14 in 10.0 mi North 17.3 mph 28.8 mph N/A   Mostly Cloudy
3:35 AM 15.8 °F -0.2 °F 3.2 °F 58% 30.15 in 10.0 mi North 17.3 mph 25.3 mph N/A   Overcast
3:55 AM 15.8 °F -1.9 °F 1.4 °F 53% 30.15 in 10.0 mi North 21.9 mph - N/A   Overcast
4:15 AM 15.8 °F -0.2 °F 1.4 °F 53% 30.16 in 10.0 mi North 17.3 mph 21.9 mph N/A   Overcast
4:35 AM 14.0 °F -4.3 °F 1.4 °F 57% 30.16 in 10.0 mi North 21.9 mph 26.5 mph N/A   Overcast
4:55 AM 12.2 °F -6.7 °F -0.4 °F 57% 30.17 in 10.0 mi North 21.9 mph 29.9 mph N/A   Mostly Cloudy
5:15 AM 12.2 °F -6.3 °F -0.4 °F 57% 30.18 in 10.0 mi North 20.7 mph 26.5 mph N/A   Overcast
5:35 AM 12.2 °F -5.8 °F -0.4 °F 57% 30.19 in 10.0 mi North 19.6 mph 23.0 mph N/A   Overcast
5:55 AM 12.2 °F -7.1 °F -2.2 °F 53% 30.19 in 10.0 mi North 23.0 mph - N/A   Overcast
6:15 AM 10.4 °F -8.2 °F -2.2 °F 57% 30.20 in 10.0 mi North 19.6 mph 26.5 mph N/A   Overcast
6:35 AM 10.4 °F -8.6 °F -2.2 °F 57% 30.22 in 10.0 mi North 20.7 mph 25.3 mph N/A   Overcast
6:55 AM 10.4 °F -7.2 °F -5.8 °F 48% 30.22 in 10.0 mi North 17.3 mph - N/A   Scattered Clouds
7:15 AM 8.6 °F -7.0 °F -4.0 °F 57% 30.23 in 10.0 mi North 12.7 mph - N/A   Clear
7:35 AM 8.6 °F -10.0 °F -4.0 °F 57% 30.24 in 10.0 mi North 18.4 mph - N/A   Clear
7:55 AM 8.6 °F -10.5 °F -5.8 °F 52% 30.25 in 10.0 mi North 19.6 mph - N/A   Clear
8:15 AM 8.6 °F -8.3 °F -7.6 °F 48% 30.26 in 10.0 mi North 15.0 mph - N/A   Clear
8:35 AM 8.6 °F -10.0 °F -5.8 °F 52% 30.28 in 10.0 mi North 18.4 mph - N/A   Clear
8:55 AM 8.6 °F -9.5 °F -5.8 °F 52% 30.29 in 10.0 mi North 17.3 mph 23.0 mph N/A   Clear
9:15 AM 8.6 °F -10.0 °F -4.0 °F 57% 30.31 in 10.0 mi North 18.4 mph 23.0 mph N/A   Clear
9:35 AM 8.6 °F -11.9 °F -5.8 °F 52% 30.32 in 10.0 mi North 23.0 mph 27.6 mph N/A   Clear
9:55 AM 8.6 °F -11.9 °F -5.8 °F 52% 30.32 in 10.0 mi North 23.0 mph 29.9 mph N/A   Clear
10:15 AM 10.4 °F -9.9 °F -5.8 °F 48% 30.33 in 10.0 mi North 24.2 mph 27.6 mph N/A   Clear
10:35 AM 10.4 °F -8.6 °F -4.0 °F 52% 30.33 in 10.0 mi North 20.7 mph 26.5 mph N/A   Clear
10:55 AM 12.2 °F -7.1 °F -2.2 °F 53% 30.35 in 10.0 mi North 23.0 mph 27.6 mph N/A   Clear
11:15 AM 12.2 °F -6.7 °F -2.2 °F 53% 30.36 in 10.0 mi North 21.9 mph - N/A   Clear
11:35 AM 12.2 °F -6.7 °F -2.2 °F 53% 30.35 in 10.0 mi North 21.9 mph - N/A   Clear
11:55 AM 12.2 °F -6.7 °F -2.2 °F 53% 30.35 in 10.0 mi North 21.9 mph 28.8 mph N/A   Clear
12:15 PM 12.2 °F -6.7 °F -0.4 °F 57% 30.36 in 10.0 mi North 21.9 mph 26.5 mph N/A   Clear
12:35 PM 14.0 °F -3.4 °F -0.4 °F 53% 30.35 in 10.0 mi North 19.6 mph 24.2 mph N/A   Clear
12:55 PM 15.8 °F -2.3 °F -0.4 °F 49% 30.35 in 10.0 mi NNE 23.0 mph 28.8 mph N/A   Scattered Clouds
1:15 PM 15.8 °F -1.1 °F -0.4 °F 49% 30.35 in 10.0 mi North 19.6 mph 26.5 mph N/A   Mostly Cloudy
1:35 PM 15.8 °F -1.9 °F -0.4 °F 49% 30.35 in 10.0 mi North 21.9 mph 26.5 mph N/A   Clear
1:55 PM 14.0 °F -3.9 °F -0.4 °F 53% 30.35 in 9.0 mi North 20.7 mph 25.3 mph N/A   Scattered Clouds
2:15 PM 12.2 °F -5.8 °F 1.4 °F 62% 30.35 in 10.0 mi NNE 19.6 mph - N/A   Overcast
2:35 PM 12.2 °F -4.8 °F 1.4 °F 62% 30.36 in 10.0 mi North 17.3 mph - N/A   Overcast
2:55 PM 12.2 °F -4.3 °F 1.4 °F 62% 30.38 in 10.0 mi North 16.1 mph 21.9 mph N/A   Overcast
3:15 PM 14.0 °F -2.5 °F -0.4 °F 53% 30.39 in 10.0 mi North 17.3 mph - N/A   Overcast
3:35 PM 14.0 °F -3.0 °F -0.4 °F 53% 30.40 in 10.0 mi North 18.4 mph 21.9 mph N/A   Mostly Cloudy
3:55 PM 14.0 °F -1.4 °F -0.4 °F 53% 30.41 in 10.0 mi North 15.0 mph - N/A   Overcast
4:15 PM 14.0 °F -0.8 °F -0.4 °F 53% 30.42 in 10.0 mi North 13.8 mph 21.9 mph N/A   Overcast
4:35 PM 12.2 °F -3.7 °F -0.4 °F 57% 30.42 in 10.0 mi North 15.0 mph 20.7 mph N/A   Overcast
4:55 PM 12.2 °F -1.8 °F -0.4 °F 57% 30.44 in 10.0 mi North 11.5 mph 18.4 mph N/A   Mostly Cloudy
5:15 PM 12.2 °F -1.0 °F -0.4 °F 57% 30.44 in 10.0 mi NNW 10.4 mph - N/A   Scattered Clouds
5:35 PM 10.4 °F -2.4 °F -0.4 °F 62% 30.44 in 10.0 mi North 9.2 mph - N/A   Clear
5:55 PM 10.4 °F -0.4 °F -0.4 °F 62% 30.45 in 10.0 mi North 6.9 mph - N/A   Clear
6:15 PM 8.6 °F -3.7 °F -2.2 °F 62% 30.46 in 10.0 mi North 8.1 mph - N/A   Partly Cloudy
6:35 PM 10.4 °F -0.4 °F -0.4 °F 62% 30.46 in 10.0 mi North 6.9 mph - N/A   Mostly Cloudy
6:55 PM 8.6 °F -1.3 °F -2.2 °F 62% 30.46 in 10.0 mi North 5.8 mph - N/A   Scattered Clouds
7:15 PM 6.8 °F -3.5 °F -4.0 °F 61% 30.47 in 10.0 mi North 5.8 mph - N/A   Clear
7:35 PM 6.8 °F -2.0 °F -2.2 °F 67% 30.47 in 10.0 mi North 4.6 mph - N/A   Partly Cloudy
7:55 PM 6.8 °F -0.1 °F -2.2 °F 67% 30.47 in 10.0 mi North 3.5 mph - N/A   Mostly Cloudy
8:15 PM 6.8 °F -3.5 °F -4.0 °F 61% 30.49 in 10.0 mi North 5.8 mph - N/A   Mostly Cloudy
8:35 PM 8.6 °F 0.1 °F 1.4 °F 73% 30.49 in 10.0 mi North 4.6 mph - N/A   Overcast
8:55 PM 8.6 °F -2.6 °F -0.4 °F 67% 30.51 in 10.0 mi NNW 6.9 mph - N/A   Mostly Cloudy
9:15 PM 8.6 °F -2.6 °F -0.4 °F 67% 30.52 in 10.0 mi NNW 6.9 mph - N/A   Overcast
9:35 PM 6.8 °F -4.8 °F -2.2 °F 67% 30.52 in 10.0 mi NNW 6.9 mph - N/A   Scattered Clouds
9:55 PM 6.8 °F -5.9 °F -2.2 °F 67% 30.53 in 10.0 mi NNW 8.1 mph - N/A   Clear
10:15 PM 6.8 °F -8.6 °F -2.2 °F 67% 30.54 in 10.0 mi North 11.5 mph - N/A   Clear
10:35 PM 6.8 °F -8.6 °F -5.8 °F 56% 30.53 in 10.0 mi North 11.5 mph - N/A   Clear
10:55 PM 5.0 °F -9.1 °F -5.8 °F 61% 30.54 in 10.0 mi North 9.2 mph - N/A   Partly Cloudy
11:15 PM 6.8 °F -6.9 °F -4.0 °F 61% 30.54 in 10.0 mi North 9.2 mph - N/A   Mostly Cloudy
11:35 PM 6.8 °F -12.9 °F -4.0 °F 61% 30.55 in 4.0 mi North 19.6 mph - N/A   Overcast
11:55 PM 3.2 °F -15.3 °F -4.0 °F 72% 30.55 in 4.0 mi North 15.0 mph - N/A   Overcast